This is the latest recevied weather packets stored in our database for station/object KB2SKP. If no packets are shown the sender has not sent any weather packets the latest 10 day(s).
| Time | Temp. | Humidity | Pressure | Rain* | Wind** | Luminosity | Snow |
|---|---|---|---|---|---|---|---|
| 1777466631 | 12.78° C | 80% | 1011.2 hPa | 0 mm | - | 57 W/m² | - |
| 1777466327 | 12.78° C | 81% | 1011.4 hPa | 0 mm | - | 46 W/m² | - |
| 1777466023 | 12.78° C | 82% | 1010.8 hPa | 0 mm | - | 39 W/m² | - |
| 1777465719 | 12.78° C | 82% | 1010.9 hPa | 0 mm | - | 38 W/m² | - |
| 1777465415 | 12.78° C | 81% | 1011.3 hPa | 0 mm | - | 36 W/m² | - |
| 1777465113 | 12.78° C | 82% | 1011.1 hPa | 0 mm | - | 36 W/m² | - |
| 1777464809 | 12.78° C | 82% | 1011.3 hPa | 0 mm | - | 23 W/m² | - |
| 1777464505 | 12.78° C | 84% | 1011 hPa | 0 mm | - | 33 W/m² | - |
| 1777463902 | 12.22° C | 84% | 1011.1 hPa | 0 mm | - | 38 W/m² | - |
| 1777463293 | 12.22° C | 84% | 1011.5 hPa | 0 mm | - | 32 W/m² | - |
| 1777462684 | 11.67° C | 86% | 1011.4 hPa | 0 mm | - | 35 W/m² | - |
| 1777462380 | 11.67° C | 86% | 1011.2 hPa | 0 mm | - | 34 W/m² | - |
| 1777462076 | 11.11° C | 86% | 1011.3 hPa | 0 mm | - | 31 W/m² | - |
| 1777461774 | 11.11° C | 88% | 1011.3 hPa | 0 mm | - | 30 W/m² | - |
| 1777461469 | 10.56° C | 89% | 1011.2 hPa | 0 mm | - | 25 W/m² | - |
| 1777461166 | 10.56° C | 89% | 1011.1 hPa | 0 mm | - | 20 W/m² | - |
| 1777460861 | 10.56° C | 89% | 1011.5 hPa | 0 mm | - | 15 W/m² | - |
| 1777460556 | 10.56° C | 90% | 1011.7 hPa | 0 mm | - | 11 W/m² | - |
| 1777460252 | 10° C | 90% | 1011.8 hPa | 0 mm | - | 7 W/m² | - |
| 1777459950 | 10° C | 90% | 1011.8 hPa | 0 mm | - | 4 W/m² | - |
| 1777459647 | 10° C | 90% | 1011.8 hPa | 0 mm | - | 4 W/m² | - |
| 1777459041 | 9.44° C | 91% | 1011.5 hPa | 0 mm | - | 3 W/m² | - |
| 1777458435 | 9.44° C | 91% | 1011.4 hPa | 0 mm | - | 1 W/m² | - |
| 1777458131 | 9.44° C | 91% | 1011.5 hPa | 0 mm | - | 1 W/m² | - |
| 1777457826 | 8.89° C | 91% | 1011.7 hPa | 0 mm | - | 1 W/m² | - |
* Rain latest hour (hover to see other rain measurements)
** Current wind speed in m/s (hover to see current wind gust speed)